THOR ABLESTAR DEB, 148

Orbit data source: Space-Track

THOR ABLESTAR DEB, 148 is space debris in LEO originally from a launch on Thu, 29 Jun 1961 UTC launched from the Air Force Eastern Test Range (AFETR). Debris objects in space refer to the collection of defunct objects orbiting the Earth. Examples of debris include non-operational satellites, rocket bodies, and fragments generated from explosions, collisions, or faulty payload assembly.

Loading next visibility...
Identifier
148, 1961-015AJ
Orbit
LEO
Country
Flag of USUS
Related business
Manufacturer
Unknown
Mission
Spacecraft
Bus & Motor
Unknown
Mass
Unknown
Launch date (UTC)
1961-06-29 (65 years ago)
Launch vehicle
Unknown
Launch site
Air Force Eastern Test Range (AFETR)
Object type
Payload
Rocket body
Debris
Shape & HBR
Unknown shape, 0.1 m
Radar Cross Section
Medium (>0.1 m² and <1 m²)

Expand to show TLE details & history
Last TLE update: 6 hours ago

TLE from 6 hours ago
0 THOR ABLESTAR DEB
1   148U 61015AJ  26178.14554405  .00001371  00000-0  73301-3 0  9997
2   148  65.7717  87.9215 0149441 314.0329  44.8517 14.10851292760381
Epoch: 2026-06-27T03:29Z
TLE epoch observation values (Epoch: 2026-06-27T03:29:35.005Z)
Latitude
-0.00006°
Longitude
120.26172°
Altitude
782.639 km
Speed
7.502 km/s
True Right ascension
05h 51m 41s
True Declination
0° 00' 00"
Sunlit
Object was in daylight at epoch
Visualization orbit readout
Latitude
Unknown
Longitude
Unknown
Altitude
Unknown
Speed
Unknown
Apparent Right ascension
Unknown
Apparent Declination
Unknown
Sunlit
N/A
Visualization observer readout
Local Sidereal Time
21:09:20
Azimuth
Unknown
Elevation
Unknown
Doppler factor
Unknown
Orbital elements
Apogee altitude
963.05 km
Perigee altitude
746.866 km
Semi-major axis
7,233.095 km
Eccentricity
0.01494
Inclination
65.7717°
RAAN
87.9215°
Arg. of periapsis
314.0329°
True anomaly
46.07557°
Mean anomaly
44.8517°
Eccentric anomaly
45.46201°
Mean motion
3.52823 °/min
Orbital period
102.03 mins
BSTAR
0.00073301
Loading maneuver chart data...
Computing Atmospheric mass density...

Documentation

Showing up to 5 results
|